Погода в Ямся

Финляндия     61°51′59″N   25°11′42″E
темп.,
°C
ветер,
м/с
пор.,
м/с
влажн.,
%
обл.,
%
осадки,
мм/ч
давл.,
гПа
погр.,
м
16 мая, вс
вс1600:00+12сз118398 0.1 100510
03:00+10сз229479 0.1 100518
06:00+10зсз239472 0.1 1005105
09:00+12зсз2292100 1.3 1006217
12:00+12сз3592100 3.2 1007273
15:00+16зсз127494 3.3 1008704
18:00+18ю135415 0.1 10071363
21:00+13ююв1180100 0.1 100817
17 мая, пн
пн1700:00+11юз118631 0.0 100911
03:00+9ююз119152 0.0 101012
06:00+9вюв228536 0.0 101055
09:00+11вюв3973100 0.0 1010264
12:00+16вюв51163100 0.0 1009913
15:00+18юв61256100 0.1 10071492
18:00+14юв51281100 0.5 1007723
21:00+12ююв3999100 6.3 1006442
18 мая, вт
вт1800:00+11з259316 1.8 1007191
03:00+8юз1197100 1.8 100910
06:00+9всв1197100 0.0 100829
09:00+11всв1289100 0.0 1008275
12:00+15ссв3471100 0.0 1006743
15:00+13с2597100 6.4 1004285
18:00+13ссв4898100 8.8 1001348
21:00+14св3799100 10.9 999293
19 мая, ср
ср1900:00+14св3899100 2.3 997274
03:00+13вюв61399100 4.4 995703
06:00+12ю51198100 0.3 996546
09:00+11з3596100 0.4 999402
12:00+12з3491100 0.1 1001512
15:00+12зсз3587100 0.3 1004623
18:00+13ссз3478100 0.0 1005704
21:00+11с2485100 0.1 1005214
20 мая, чт
чт2000:00+10ссз2291100 0.0 100553
03:00+8с2896100 0.0 1005212
06:00+9ссз3793100 0.1 1003315
09:00+9ссз3796100 1.8 1003330
12:00+10с4994100 0.1 1002479
15:00+10с3894100 0.6 1001497
18:00+9сз3797100 3.0 1000352
21:00+9сз51096100 4.8 998447